Tacoma Narrows, WA
on Sunday, December 16, 2012

Sunday
Previous Day Next Day
Daily Summary
 ActualAverageRecord
Temperature
Mean Temperature °F °F  
Max Temperature 46°F 44°F 53°F (1997)
Min Temperature 37°F 37°F 25°F (2008)
Degree Days
Heating Degree Days 24    
Moisture
Dew Point 36°F   
Average Humidity 87    
Maximum Humidity 93    
Minimum Humidity 81    
Precipitation
Precipitation 0.92 in in in ()
Wind
Wind Speed 12 mph   
Max Wind Speed 20 mph   
Max Gust Speed 30 mph   
Visibility 9 miles   
Events Rain   
Averages and records for this station are not official NWS values.
Key: T is trace of precipitation, MM is missing value
Source: NWS Daily Summary
Seasonal Weather Averages
Time(PST)TemperatureDew PointHumidity Pressure Visibility Wind DirectionWind SpeedGust SpeedPrecipitationEvents Conditions
12:21 AM 39.2°F 33.8°F 81% 29.71 in 10.0 miles South 12.7 mph 21.9 mph N/A   Mostly Cloudy
12:53 AM 39.0°F 34.0°F 82% 29.73 in 10.0 miles South 17.3 mph 23.0 mph N/A   Overcast
1:27 AM 39.2°F 33.8°F 81% 29.73 in 10.0 miles SSW 16.1 mph 23.0 mph N/A   Overcast
1:40 AM 39.2°F 33.8°F 81% 29.73 in 10.0 miles SSW 17.3 mph 25.3 mph 0.00 in Rain Light Rain
1:53 AM 37.9°F 34.0°F 86% 29.75 in 10.0 miles SSW 15.0 mph 23.0 mph 0.01 in Rain Light Rain
2:07 AM 37.4°F 33.8°F 87% 29.74 in 8.0 miles SSW 12.7 mph 20.7 mph 0.03 in Rain Light Rain
2:21 AM 37.4°F 33.8°F 87% 29.74 in 10.0 miles South 13.8 mph - 0.03 in   Overcast
2:37 AM 37.4°F 33.8°F 87% 29.74 in 10.0 miles South 15.0 mph 23.0 mph 0.03 in   Overcast
2:53 AM 37.0°F 34.0°F 89% 29.75 in 10.0 miles South 15.0 mph - 0.03 in   Overcast
3:43 AM 37.4°F 33.8°F 87% 29.75 in 10.0 miles South 11.5 mph - 0.00 in   Overcast
3:53 AM 37.9°F 34.0°F 86% 29.76 in 10.0 miles South 11.5 mph - 0.00 in   Overcast
4:09 AM 37.4°F 33.8°F 87% 29.75 in 10.0 miles South 17.3 mph 23.0 mph N/A   Overcast
4:53 AM 37.9°F 35.1°F 89% 29.76 in 10.0 miles South 15.0 mph 19.6 mph 0.01 in   Overcast
5:31 AM 39.2°F 33.8°F 81% 29.75 in 10.0 miles South 10.4 mph 18.4 mph N/A   Overcast
5:53 AM 39.0°F 35.1°F 86% 29.76 in 10.0 miles South 11.5 mph 19.6 mph N/A   Overcast
6:53 AM 39.0°F 35.1°F 86% 29.76 in 10.0 miles South 10.4 mph - 0.00 in   Overcast
7:00 AM 39.2°F 35.6°F 87% 29.75 in 10.0 miles South 11.5 mph - N/A   Overcast
7:03 AM 39.2°F 35.6°F 87% 29.75 in 10.0 miles South 10.4 mph - N/A   Overcast
7:18 AM 39.2°F 35.6°F 87% 29.75 in 10.0 miles South 11.5 mph - N/A   Overcast
7:53 AM 37.9°F 35.1°F 89% 29.76 in 10.0 miles South 8.1 mph - 0.01 in Rain Light Rain
8:53 AM 37.4°F 35.6°F 93% 29.74 in 7.0 miles South 9.2 mph - N/A Rain Light Rain
9:07 AM 37.4°F 35.6°F 93% 29.73 in 10.0 miles South 6.9 mph - 0.00 in Rain Light Rain
9:53 AM 37.9°F 35.1°F 89% 29.73 in 10.0 miles South 8.1 mph - 0.02 in Rain Light Rain
10:53 AM 39.0°F 35.1°F 86% 29.70 in 10.0 miles SSE 4.6 mph - 0.01 in Rain Light Rain
11:53 AM 37.9°F 35.1°F 89% 29.65 in 9.0 miles SSE 4.6 mph - 0.03 in Rain Light Rain
12:53 PM 39.0°F 36.0°F 89% 29.59 in 10.0 miles Calm Calm - 0.04 in Rain Light Rain
1:53 PM 39.0°F 37.0°F 93% 29.51 in 8.0 miles ENE 3.5 mph - 0.02 in Rain Light Rain
2:12 PM 39.2°F 37.4°F 93% 29.47 in 8.0 miles NE 3.5 mph - 0.01 in Rain Light Rain
2:53 PM 39.0°F 37.0°F 93% 29.41 in 7.0 miles ENE 4.6 mph - 0.04 in Rain Light Rain
3:53 PM 41.0°F 37.0°F 86% 29.32 in 4.0 miles Calm Calm - 0.11 in Rain Rain
4:31 PM 39.2°F 37.4°F 93% 29.24 in 5.0 miles ENE 6.9 mph - 0.06 in Rain Light Rain
4:53 PM 39.9°F 37.0°F 89% 29.21 in 5.0 miles ENE 6.9 mph - 0.09 in Rain Light Rain
5:53 PM 41.0°F 37.9°F 89% 29.11 in 9.0 miles Calm Calm - 0.03 in Rain Light Rain
6:53 PM 42.1°F 37.9°F 85% 29.05 in 4.0 miles South 4.6 mph - 0.09 in Rain Light Rain
7:53 PM 42.1°F 39.9°F 92% 29.05 in 5.0 miles SSE 6.9 mph - 0.17 in Rain Light Rain
7:57 PM 42.8°F 39.2°F 87% 29.04 in 7.0 miles Variable 6.9 mph - 0.00 in Rain Light Rain
8:11 PM 44.6°F 41.0°F 87% 29.04 in 10.0 miles South 15.0 mph 19.6 mph 0.01 in Rain Light Rain
8:18 PM 46.4°F 41.0°F 81% 29.04 in 10.0 miles South 17.3 mph 25.3 mph 0.02 in Rain Light Rain
8:53 PM 46.0°F 41.0°F 83% 29.05 in 10.0 miles South 19.6 mph 29.9 mph 0.03 in Rain Light Rain
9:53 PM 46.0°F 41.0°F 83% 29.03 in 10.0 miles South 11.5 mph 17.3 mph 0.00 in   Mostly Cloudy
10:53 PM 45.0°F 41.0°F 86% 29.00 in 6.0 miles SSE 8.1 mph 18.4 mph 0.11 in Rain Light Rain
11:10 PM 44.6°F 42.8°F 93% 28.97 in 10.0 miles Variable 3.5 mph - 0.01 in Rain Light Rain
11:32 PM 44.6°F 39.2°F 81% 28.97 in 8.0 miles SSE 6.9 mph - 0.04 in Rain Light Rain
11:53 PM 44.1°F 39.9°F 85% 28.96 in 5.0 miles SSE 11.5 mph 20.7 mph 0.07 in Rain Light Rain
Moon Phase
Dec. 16 Dec. 20 Dec. 28 Jan. 04 Jan. 11
Sunrise:07:51 AM (PST) Moon Rise:10:15 AM (PST)12/16
Sunset:04:20 PM (PST) Moon Set:08:55 PM (PST)12/16

Copyright © 2014 The Weather Underground, Inc.